Cape Girardeau, MO

9:11 PM CDT on April 26, 2018 (GMT -0500)
Cape Girardeau Regional

Weather History for KCGI - November, 2011

Change the Weather History Date:

Friday, November 4, 2011

  Actual Average Record
Temperature  
Mean Temperature 45 °F 52 °F  
Max Temperature 52 °F 63 °F 82 °F (1987)
Min Temperature 37 °F 40 °F 16 °F (1991)
Degree Days  
Heating Degree Days 20    
Month to date heating degree days 53  
Since 1 July heating degree days 340  
Cooling Degree Days 0    
Month to date cooling degree days 0  
Year to date cooling degree days 1697  
Moisture  
Dew Point 43 °F    
Average Humidity 84    
Maximum Humidity 96    
Minimum Humidity 71    
Precipitation  
Precipitation 0.00 in 0.13 in 2.36 in (1994)
Month to date precipitation 0.42 0.52  
Year to date precipitation 59.41 38.64  
Sea Level Pressure  
Sea Level Pressure 30.19 in    
Wind  
Wind Speed 7 mph (North)    
Max Wind Speed 16 mph    
Max Gust Speed 22 mph    
Visibility 6 miles    
Events Fog    
T = Trace of Precipitation, MM = Missing Value Source: NWS Daily Summary

Daily Weather History Graph

Daily Weather History Graph

Search for Another Location

Airport or City:

Astronomy

Nov. 04, 2011 Rise Set
Actual Time 7:25 AM CDT 5:57 PM CDT
Civil Twilight 6:58 AM CDT 6:24 PM CDT
Nautical Twilight 6:27 AM CDT 6:55 PM CDT
Astronomical Twilight 5:57 AM CDT 7:26 PM CDT
Moon 2:42 PM CDT (11/4) 1:44 AM CDT (11/4)
Length of Visible Light 11h 26m
Length of Day
10h 32m
Waxing Gibbous, 69% of the Moon is Illuminated
Nov 4
Waxing Gibbous
Nov 10
Full
Nov 18
Last Quarter
Nov 25
New
Dec 2
First Quarter

Hourly Weather History & Observations

Time (CDT) Temp. Windchill Dew Point Humidity Pressure Visibility Wind Dir Wind Speed Gust Speed Precip Events Conditions
12:53 AM 48.9 °F - 46.0 °F 90% 30.07 in 4.0 mi NNW 11.5 mph - N/A   Overcast
1:51 AM 48.2 °F - 46.4 °F 93% 30.08 in 3.0 mi NNW 15.0 mph 20.7 mph N/A   Overcast
1:53 AM 48.0 °F - 46.0 °F 93% 30.08 in 3.0 mi North 13.8 mph 20.7 mph 0.01 in   Overcast
2:31 AM 48.2 °F - 46.4 °F 93% 30.08 in 4.0 mi NNW 15.0 mph - N/A   Overcast
2:53 AM 48.2 °F - 44.6 °F 87% 30.09 in 4.0 mi NNW 12.7 mph 20.7 mph N/A   Overcast
3:00 AM 48.2 °F - 44.6 °F 87% 30.09 in 4.0 mi NNW 13.8 mph - N/A   Overcast
3:12 AM 48.2 °F - 44.6 °F 87% 30.08 in 5.0 mi North 12.7 mph 20.7 mph N/A   Overcast
3:26 AM 48.2 °F - 44.6 °F 87% 30.09 in 4.0 mi North 13.8 mph - N/A   Overcast
3:53 AM 48.0 °F - 45.0 °F 89% 30.10 in 6.0 mi NNW 12.7 mph - N/A   Overcast
4:53 AM 48.0 °F - 45.0 °F 89% 30.13 in 7.0 mi North 11.5 mph - N/A   Overcast
5:06 AM 48.2 °F - 44.6 °F 87% 30.13 in 7.0 mi North 11.5 mph - N/A   Overcast
5:53 AM 48.0 °F - 44.1 °F 86% 30.15 in 9.0 mi North 10.4 mph - N/A   Overcast
6:53 AM 48.0 °F - 44.1 °F 86% 30.17 in 9.0 mi North 10.4 mph - N/A   Overcast
7:35 AM 48.2 °F - 44.6 °F 87% 30.18 in 10.0 mi North 9.2 mph - N/A   Overcast
7:53 AM 48.9 °F - 44.1 °F 83% 30.19 in 10.0 mi North 11.5 mph - N/A   Overcast
8:53 AM 48.9 °F - 44.1 °F 83% 30.20 in 10.0 mi North 9.2 mph - N/A   Overcast
9:53 AM 50.0 °F - 44.1 °F 80% 30.22 in 10.0 mi NNE 10.4 mph - N/A   Overcast
10:53 AM 50.0 °F - 44.1 °F 80% 30.23 in 10.0 mi NNE 9.2 mph - N/A   Overcast
11:53 AM 50.0 °F - 44.1 °F 80% 30.24 in 10.0 mi North 10.4 mph - N/A   Overcast
12:53 PM 51.1 °F - 43.0 °F 74% 30.25 in 10.0 mi North 8.1 mph - N/A   Overcast
1:53 PM 51.8 °F - 44.6 °F 76% 30.22 in 10.0 mi North 6.9 mph - N/A   Overcast
2:53 PM 51.1 °F - 43.0 °F 74% 30.22 in 10.0 mi North 8.1 mph - N/A   Overcast
3:53 PM 51.1 °F - 43.0 °F 74% 30.22 in 10.0 mi NE 6.9 mph - N/A   Overcast
4:53 PM 51.1 °F - 43.0 °F 74% 30.22 in 10.0 mi NE 5.8 mph - N/A   Overcast
5:53 PM 50.0 °F - 43.0 °F 77% 30.22 in 10.0 mi NE 5.8 mph - N/A   Overcast
6:53 PM 50.0 °F - 43.0 °F 77% 30.24 in 10.0 mi ENE 4.6 mph - N/A   Overcast
7:53 PM 50.0 °F - 43.0 °F 77% 30.24 in 10.0 mi ENE 3.5 mph - N/A   Overcast
8:53 PM 48.9 °F - 43.0 °F 80% 30.24 in 10.0 mi Calm Calm - N/A   Overcast
9:32 PM 46.4 °F - 42.8 °F 87% 30.24 in 6.0 mi Calm Calm - N/A   Scattered Clouds
9:53 PM 45.0 °F - 42.1 °F 90% 30.24 in 7.0 mi Calm Calm - N/A   Clear
10:51 PM 42.8 °F - 41.0 °F 93% 30.23 in 2.0 mi Calm Calm - N/A   Clear
10:53 PM 42.1 °F - 41.0 °F 96% 30.24 in 2.0 mi Calm Calm - N/A   Clear
11:02 PM 42.8 °F - 39.2 °F 87% 30.23 in 3.0 mi Calm Calm - N/A   Clear
11:05 PM 42.8 °F - 39.2 °F 87% 30.23 in 1.5 mi Calm Calm - N/A   Clear
11:21 PM 39.2 °F - 39.2 °F 100% 30.23 in 0.2 mi Calm Calm - N/A Fog Fog
11:30 PM 39.2 °F - 37.4 °F 93% 30.23 in 1.2 mi Calm Calm - N/A   Clear
11:32 PM 39.2 °F - 37.4 °F 93% 30.23 in 4.0 mi Calm Calm - N/A   Partly Cloudy
11:37 PM 41.0 °F - 39.2 °F 93% 30.23 in 1.2 mi Calm Calm - N/A   Scattered Clouds
11:44 PM 39.2 °F - 39.2 °F 100% 30.22 in 0.2 mi Calm Calm - N/A Fog Fog
11:53 PM 39.0 °F 36.8 °F 37.9 °F 96% 30.22 in 0.5 mi ESE 3.5 mph - N/A Fog Fog